Location: Washington
(38.8950°N, 77.0367°W)
Time: 23:29:41
(UTC-04:00)

N. Korean satellite - Visible Passes

Search period start: 29 June 2015 00:00
Search period end: 09 July 2015 00:00
Orbit: 473 x 536 km, 97.3° (Epoch: 28 June)

Date Brightness Start Highest point End Pass type
(mag) Time Alt. Az. Time Alt. Az. Time Alt. Az.
29 Jun 9.6 21:20:30 10° SW 21:22:55 15° W 21:25:12 10° NW visible
30 Jun 9.0 21:01:22 10° SSW 21:04:38 25° W 21:07:50 10° NW visible
04 Jul 9.6 21:23:56 10° SW 21:26:02 14° W 21:27:59 10° WNW visible
05 Jul 9.2 21:04:37 10° SSW 21:07:43 23° W 21:10:43 10° NW visible
